Location: Newark
(41.0400°S, 62.7845°W)
Time: 21:37:07
(UTC+00:00)

Courier 1B Rocket - Pass Details

Date: 08 December 2021
Orbit: 920 x 1202 km, 28.2° (Epoch: 22 January)

Event Time Altitude Azimuth Distance (km) Brightness Sun altitude
Rises 13:54:04 0° 301° (WNW) 3,869 7.9 57.4°
Reaches altitude 10° 13:57:07 10° 311° (NW) 2,961 7.5 57.9°
Maximum altitude 14:03:15 29° 8° (N) 1,966 7.4 58.9°
Drops below altitude 10° 14:09:39 10° 64° (ENE) 3,107 8.3 60.0°
Sets 14:12:57 0° 74° (ENE) 4,092 8.7 60.5°
